Year,Month,Day,Hour,Minute,Value (Times are PST for temperature in C)
2016,09,28,00,00,10.20
2016,09,28,00,01,10.20
2016,09,28,00,02,10.20
2016,09,28,00,03,10.10
2016,09,28,00,04,10.10
2016,09,28,00,05,10.10
2016,09,28,00,06,10.10
2016,09,28,00,07,10.10
2016,09,28,00,08,10.00
2016,09,28,00,09,10.00
2016,09,28,00,10,10.00
2016,09,28,00,11,10.00
2016,09,28,00,12,10.00
2016,09,28,00,13,9.90
2016,09,28,00,14,10.00
2016,09,28,00,15,9.90
2016,09,28,00,16,9.90
2016,09,28,00,17,9.90
2016,09,28,00,18,9.90
2016,09,28,00,19,9.90
2016,09,28,00,20,9.90
2016,09,28,00,21,9.90
2016,09,28,00,22,9.90
2016,09,28,00,23,9.90
2016,09,28,00,24,9.90
2016,09,28,00,25,9.90
2016,09,28,00,26,9.90
2016,09,28,00,27,9.90
2016,09,28,00,28,9.90
2016,09,28,00,29,9.90
2016,09,28,00,30,9.90
2016,09,28,00,31,9.90
2016,09,28,00,32,9.90
2016,09,28,00,33,9.90
2016,09,28,00,34,9.90
2016,09,28,00,35,9.90
2016,09,28,00,36,9.90
2016,09,28,00,37,9.90
2016,09,28,00,38,9.80
2016,09,28,00,39,9.80
2016,09,28,00,40,9.80
2016,09,28,00,41,9.80
2016,09,28,00,42,9.80
2016,09,28,00,43,9.80
2016,09,28,00,44,9.80
2016,09,28,00,45,9.80
2016,09,28,00,46,9.80
2016,09,28,00,47,9.80
2016,09,28,00,48,9.80
2016,09,28,00,49,9.80
2016,09,28,00,50,9.80
2016,09,28,00,51,9.80
2016,09,28,00,52,9.80
2016,09,28,00,53,9.80
2016,09,28,00,54,9.70
2016,09,28,00,55,9.80
2016,09,28,00,56,9.80
2016,09,28,00,57,9.70
2016,09,28,00,58,9.70
2016,09,28,00,59,9.70
2016,09,28,01,00,9.70
2016,09,28,01,01,9.70
2016,09,28,01,02,9.70
2016,09,28,01,03,9.70
2016,09,28,01,04,9.70
2016,09,28,01,05,9.70
2016,09,28,01,06,9.70
2016,09,28,01,07,9.70
2016,09,28,01,08,9.70
2016,09,28,01,09,9.70
2016,09,28,01,10,9.60
2016,09,28,01,11,9.60
2016,09,28,01,12,9.60
2016,09,28,01,13,9.60
2016,09,28,01,14,9.60
2016,09,28,01,15,9.60
2016,09,28,01,16,9.60
2016,09,28,01,17,9.60
2016,09,28,01,18,9.60
2016,09,28,01,19,9.60
2016,09,28,01,20,9.60
2016,09,28,01,21,9.60
2016,09,28,01,22,9.60
2016,09,28,01,23,9.60
2016,09,28,01,24,9.60
2016,09,28,01,25,9.60
2016,09,28,01,26,9.60
2016,09,28,01,27,9.60
2016,09,28,01,28,9.60
2016,09,28,01,29,9.60
2016,09,28,01,30,9.60
2016,09,28,01,31,9.60
2016,09,28,01,32,9.60
2016,09,28,01,33,9.60
2016,09,28,01,34,9.60
2016,09,28,01,35,9.60
2016,09,28,01,36,9.60
2016,09,28,01,37,9.60
2016,09,28,01,38,9.60
2016,09,28,01,39,9.60
2016,09,28,01,40,9.50
2016,09,28,01,41,9.50
2016,09,28,01,42,9.60
2016,09,28,01,43,9.60
2016,09,28,01,44,9.50
2016,09,28,01,45,9.50
2016,09,28,01,46,9.50
2016,09,28,01,47,9.50
2016,09,28,01,48,9.50
2016,09,28,01,49,9.50
2016,09,28,01,50,9.50
2016,09,28,01,51,9.40
2016,09,28,01,52,9.40
2016,09,28,01,53,9.40
2016,09,28,01,54,9.40
2016,09,28,01,55,9.40
2016,09,28,01,56,9.40
2016,09,28,01,57,9.40
2016,09,28,01,58,9.40
2016,09,28,01,59,9.40
2016,09,28,02,00,9.40
2016,09,28,02,01,9.40
2016,09,28,02,02,9.40
2016,09,28,02,03,9.40
2016,09,28,02,04,9.40
2016,09,28,02,05,9.40
2016,09,28,02,06,9.40
2016,09,28,02,07,9.40
2016,09,28,02,08,9.30
2016,09,28,02,09,9.30
2016,09,28,02,10,9.30
2016,09,28,02,11,9.30
2016,09,28,02,12,9.30
2016,09,28,02,13,9.30
2016,09,28,02,14,9.30
2016,09,28,02,15,9.30
2016,09,28,02,16,9.30
2016,09,28,02,17,9.30
2016,09,28,02,18,9.30
2016,09,28,02,19,9.20
2016,09,28,02,20,9.20
2016,09,28,02,21,9.20
2016,09,28,02,22,9.20
2016,09,28,02,23,9.20
2016,09,28,02,24,9.20
2016,09,28,02,25,9.20
2016,09,28,02,26,9.20
2016,09,28,02,27,9.10
2016,09,28,02,28,9.10
2016,09,28,02,29,9.10
2016,09,28,02,30,9.10
2016,09,28,02,31,9.10
2016,09,28,02,32,9.00
2016,09,28,02,33,9.00
2016,09,28,02,34,9.00
2016,09,28,02,35,9.00
2016,09,28,02,36,8.90
2016,09,28,02,37,8.90
2016,09,28,02,38,8.90
2016,09,28,02,39,8.90
2016,09,28,02,40,8.80
2016,09,28,02,41,8.80
2016,09,28,02,42,8.80
2016,09,28,02,43,8.80
2016,09,28,02,44,8.80
2016,09,28,02,45,8.80
2016,09,28,02,46,8.80
2016,09,28,02,47,8.80
2016,09,28,02,48,8.80
2016,09,28,02,49,8.80
2016,09,28,02,50,8.80
2016,09,28,02,51,8.80
2016,09,28,02,52,8.80
2016,09,28,02,53,8.80
2016,09,28,02,54,8.80
2016,09,28,02,55,8.80
2016,09,28,02,56,8.80
2016,09,28,02,57,8.90
2016,09,28,02,58,8.90
2016,09,28,02,59,8.90
2016,09,28,03,00,8.90
2016,09,28,03,01,8.90
2016,09,28,03,02,8.90
2016,09,28,03,03,8.80
2016,09,28,03,04,8.80
2016,09,28,03,05,8.80
2016,09,28,03,06,8.80
2016,09,28,03,07,8.80
2016,09,28,03,08,8.80
2016,09,28,03,09,8.70
2016,09,28,03,10,8.70
2016,09,28,03,11,8.70
2016,09,28,03,12,8.70
2016,09,28,03,13,8.70
2016,09,28,03,14,8.70
2016,09,28,03,15,8.70
2016,09,28,03,16,8.60
2016,09,28,03,17,8.60
2016,09,28,03,18,8.60
2016,09,28,03,19,8.60
2016,09,28,03,20,8.60
2016,09,28,03,21,8.60
2016,09,28,03,22,8.60
2016,09,28,03,23,8.60
2016,09,28,03,24,8.60
2016,09,28,03,25,8.60
2016,09,28,03,26,8.60
2016,09,28,03,27,8.60
2016,09,28,03,28,8.60
2016,09,28,03,29,8.60
2016,09,28,03,30,8.60
2016,09,28,03,31,8.60
2016,09,28,03,32,8.60
2016,09,28,03,33,8.60
2016,09,28,03,34,8.60
2016,09,28,03,35,8.70
2016,09,28,03,36,8.70
2016,09,28,03,37,8.70
2016,09,28,03,38,8.60
2016,09,28,03,39,8.60
2016,09,28,03,40,8.60
2016,09,28,03,41,8.60
2016,09,28,03,42,8.60
2016,09,28,03,43,8.50
2016,09,28,03,44,8.50
2016,09,28,03,45,8.50
2016,09,28,03,46,8.50
2016,09,28,03,47,8.40
2016,09,28,03,48,8.40
2016,09,28,03,49,8.40
2016,09,28,03,50,8.40
2016,09,28,03,51,8.40
2016,09,28,03,52,8.40
2016,09,28,03,53,8.40
2016,09,28,03,54,8.30
2016,09,28,03,55,8.30
2016,09,28,03,56,8.30
2016,09,28,03,57,8.30
2016,09,28,03,58,8.30
2016,09,28,03,59,8.30
2016,09,28,04,00,8.30
2016,09,28,04,01,8.30
2016,09,28,04,02,8.30
2016,09,28,04,03,8.30
2016,09,28,04,04,8.30
2016,09,28,04,05,8.30
2016,09,28,04,06,8.30
2016,09,28,04,07,8.20
2016,09,28,04,08,8.20
2016,09,28,04,09,8.20
2016,09,28,04,10,8.20
2016,09,28,04,11,8.20
2016,09,28,04,12,8.20
2016,09,28,04,13,8.20
2016,09,28,04,14,8.20
2016,09,28,04,15,8.20
2016,09,28,04,16,8.20
2016,09,28,04,17,8.10
2016,09,28,04,18,8.10
2016,09,28,04,19,8.10
2016,09,28,04,20,8.00
2016,09,28,04,21,8.00
2016,09,28,04,22,8.00
2016,09,28,04,23,7.90
2016,09,28,04,24,7.90
2016,09,28,04,25,7.90
2016,09,28,04,26,7.90
2016,09,28,04,27,7.90
2016,09,28,04,28,7.90
2016,09,28,04,29,7.90
2016,09,28,04,30,7.90
2016,09,28,04,31,7.90
2016,09,28,04,32,7.90
2016,09,28,04,33,7.90
2016,09,28,04,34,7.90
2016,09,28,04,35,7.90
2016,09,28,04,36,7.90
2016,09,28,04,37,7.90
2016,09,28,04,38,7.90
2016,09,28,04,39,7.80
2016,09,28,04,40,7.80
2016,09,28,04,41,7.80
2016,09,28,04,42,7.70
2016,09,28,04,43,7.70
2016,09,28,04,44,7.70
2016,09,28,04,45,7.60
2016,09,28,04,46,7.60
2016,09,28,04,47,7.60
2016,09,28,04,48,7.50
2016,09,28,04,49,7.50
2016,09,28,04,50,7.50
2016,09,28,04,51,7.50
2016,09,28,04,52,7.50
2016,09,28,04,53,7.50
2016,09,28,04,54,7.50
2016,09,28,04,55,7.50
2016,09,28,04,56,7.50
2016,09,28,04,57,7.60
2016,09,28,04,58,7.60
2016,09,28,04,59,7.60
2016,09,28,05,00,7.60
2016,09,28,05,01,7.60
2016,09,28,05,02,7.60
2016,09,28,05,03,7.60
2016,09,28,05,04,7.50
2016,09,28,05,05,7.50
2016,09,28,05,06,7.50
2016,09,28,05,07,7.40
2016,09,28,05,08,7.40
2016,09,28,05,09,7.40
2016,09,28,05,10,7.40
2016,09,28,05,11,7.40
2016,09,28,05,12,7.40
2016,09,28,05,13,7.40
2016,09,28,05,14,7.40
2016,09,28,05,15,7.40
2016,09,28,05,16,7.40
2016,09,28,05,17,7.40
2016,09,28,05,18,7.40
2016,09,28,05,19,7.40
2016,09,28,05,20,7.40
2016,09,28,05,21,7.40
2016,09,28,05,22,7.40
2016,09,28,05,23,7.30
2016,09,28,05,24,7.30
2016,09,28,05,25,7.30
2016,09,28,05,26,7.30
2016,09,28,05,27,7.30
2016,09,28,05,28,7.20
2016,09,28,05,29,7.20
2016,09,28,05,30,7.20
2016,09,28,05,31,7.20
2016,09,28,05,32,7.20
2016,09,28,05,33,7.20
2016,09,28,05,34,7.10
2016,09,28,05,35,7.10
2016,09,28,05,36,7.10
2016,09,28,05,37,7.10
2016,09,28,05,38,7.10
2016,09,28,05,39,7.00
2016,09,28,05,40,7.00
2016,09,28,05,41,7.00
2016,09,28,05,42,6.90
2016,09,28,05,43,6.90
2016,09,28,05,44,6.90
2016,09,28,05,45,6.90
2016,09,28,05,46,6.90
2016,09,28,05,47,6.90
2016,09,28,05,48,6.90
2016,09,28,05,49,6.90
2016,09,28,05,50,6.90
2016,09,28,05,51,6.90
2016,09,28,05,52,6.90
2016,09,28,05,53,6.90
2016,09,28,05,54,6.90
2016,09,28,05,55,6.90
2016,09,28,05,56,6.90
2016,09,28,05,57,6.90
2016,09,28,05,58,6.90
2016,09,28,05,59,6.90
2016,09,28,06,00,6.90
2016,09,28,06,01,6.90
2016,09,28,06,02,6.90
2016,09,28,06,03,6.90
2016,09,28,06,04,6.80
2016,09,28,06,05,6.80
2016,09,28,06,06,6.80
2016,09,28,06,07,6.80
2016,09,28,06,08,6.80
2016,09,28,06,09,6.80
2016,09,28,06,10,6.80
2016,09,28,06,11,6.80
2016,09,28,06,12,6.80
2016,09,28,06,13,6.80
2016,09,28,06,14,6.80
2016,09,28,06,15,6.80
2016,09,28,06,16,6.80
2016,09,28,06,17,6.80
2016,09,28,06,18,6.80
2016,09,28,06,19,6.80
2016,09,28,06,20,6.80
2016,09,28,06,21,6.70
2016,09,28,06,22,6.70
2016,09,28,06,23,6.70
2016,09,28,06,24,6.70
2016,09,28,06,25,6.70
2016,09,28,06,26,6.70
2016,09,28,06,27,6.60
2016,09,28,06,28,6.60
2016,09,28,06,29,6.60
2016,09,28,06,30,6.60
2016,09,28,06,31,6.50
2016,09,28,06,32,6.50
2016,09,28,06,33,6.50
2016,09,28,06,34,6.40
2016,09,28,06,35,6.40
2016,09,28,06,36,6.40
2016,09,28,06,37,6.40
2016,09,28,06,38,6.40
2016,09,28,06,39,6.30
2016,09,28,06,40,6.30
2016,09,28,06,41,6.30
2016,09,28,06,42,6.30
2016,09,28,06,43,6.30
2016,09,28,06,44,6.20
2016,09,28,06,45,6.20
2016,09,28,06,46,6.20
2016,09,28,06,47,6.20
2016,09,28,06,48,6.20
2016,09,28,06,49,6.20
2016,09,28,06,50,6.20
2016,09,28,06,51,6.20
2016,09,28,06,52,6.20
2016,09,28,06,53,6.20
2016,09,28,06,54,6.20
2016,09,28,06,55,6.20
2016,09,28,06,56,6.20
2016,09,28,06,57,6.30
2016,09,28,06,58,6.30
2016,09,28,06,59,6.30
2016,09,28,07,00,6.30
2016,09,28,07,01,6.30
2016,09,28,07,02,6.30
2016,09,28,07,03,6.30
2016,09,28,07,04,6.30
2016,09,28,07,05,6.30
2016,09,28,07,06,6.40
2016,09,28,07,07,6.40
2016,09,28,07,08,6.40
2016,09,28,07,09,6.40
2016,09,28,07,10,6.40
2016,09,28,07,11,6.40
2016,09,28,07,12,6.40
2016,09,28,07,13,6.40
2016,09,28,07,14,6.40
2016,09,28,07,15,6.50
2016,09,28,07,16,6.50
2016,09,28,07,17,6.50
2016,09,28,07,18,6.60
2016,09,28,07,19,6.60
2016,09,28,07,20,6.60
2016,09,28,07,21,6.60
2016,09,28,07,22,6.60
2016,09,28,07,23,6.60
2016,09,28,07,24,6.50
2016,09,28,07,25,6.50
2016,09,28,07,26,6.50
2016,09,28,07,27,6.50
2016,09,28,07,28,6.50
2016,09,28,07,29,6.50
2016,09,28,07,30,6.50
2016,09,28,07,31,6.50
2016,09,28,07,32,6.50
2016,09,28,07,33,6.50
2016,09,28,07,34,6.50
2016,09,28,07,35,6.50
2016,09,28,07,36,6.50
2016,09,28,07,37,6.50
2016,09,28,07,38,6.60
2016,09,28,07,39,6.60
2016,09,28,07,40,6.60
2016,09,28,07,41,6.70
2016,09,28,07,42,6.70
2016,09,28,07,43,6.70
2016,09,28,07,44,6.70
2016,09,28,07,45,6.70
2016,09,28,07,46,6.70
2016,09,28,07,47,6.70
2016,09,28,07,48,6.70
2016,09,28,07,49,6.80
2016,09,28,07,50,6.80
2016,09,28,07,51,6.80
2016,09,28,07,52,6.80
2016,09,28,07,53,6.80
2016,09,28,07,54,6.80
2016,09,28,07,55,6.80
2016,09,28,07,56,6.80
2016,09,28,07,57,6.90
2016,09,28,07,58,6.90
2016,09,28,07,59,6.90
2016,09,28,08,00,6.90
2016,09,28,08,01,6.90
2016,09,28,08,02,6.90
2016,09,28,08,03,7.00
2016,09,28,08,04,7.00
2016,09,28,08,05,7.10
2016,09,28,08,06,7.20
2016,09,28,08,07,7.30
2016,09,28,08,08,7.30
2016,09,28,08,09,7.50
2016,09,28,08,10,7.60
2016,09,28,08,11,7.70
2016,09,28,08,12,7.80
2016,09,28,08,13,7.80
2016,09,28,08,14,7.80
2016,09,28,08,15,7.80
2016,09,28,08,16,7.80
2016,09,28,08,17,7.90
2016,09,28,08,18,7.90
2016,09,28,08,19,7.90
2016,09,28,08,20,8.00
2016,09,28,08,21,8.00
2016,09,28,08,22,8.10
2016,09,28,08,23,8.10
2016,09,28,08,24,8.20
2016,09,28,08,25,8.30
2016,09,28,08,26,8.30
2016,09,28,08,27,8.40
2016,09,28,08,28,8.40
2016,09,28,08,29,8.50
2016,09,28,08,30,8.60
2016,09,28,08,31,8.70
2016,09,28,08,32,8.70
2016,09,28,08,33,8.80
2016,09,28,08,34,8.80
2016,09,28,08,35,8.90
2016,09,28,08,36,9.00
2016,09,28,08,37,9.10
2016,09,28,08,38,9.20
2016,09,28,08,39,9.20
2016,09,28,08,40,9.30
2016,09,28,08,41,9.40
2016,09,28,08,42,9.50
2016,09,28,08,43,9.60
2016,09,28,08,44,9.70
2016,09,28,08,45,9.80
2016,09,28,08,46,10.00
2016,09,28,08,47,10.20
2016,09,28,08,48,10.40
2016,09,28,08,49,10.60
2016,09,28,08,50,10.80
2016,09,28,08,51,10.90
2016,09,28,08,52,11.10
2016,09,28,08,53,11.30
2016,09,28,08,54,11.50
2016,09,28,08,55,11.70
2016,09,28,08,56,11.90
2016,09,28,08,57,12.00
2016,09,28,08,58,12.10
2016,09,28,08,59,12.20
2016,09,28,09,00,12.30
2016,09,28,09,01,12.50
2016,09,28,09,02,12.60
2016,09,28,09,03,12.70
2016,09,28,09,04,12.80
2016,09,28,09,05,12.80
2016,09,28,09,06,12.80
2016,09,28,09,07,12.90
2016,09,28,09,08,12.90
2016,09,28,09,09,12.90
2016,09,28,09,10,13.00
2016,09,28,09,11,13.00
2016,09,28,09,12,13.10
2016,09,28,09,13,13.20
2016,09,28,09,14,13.30
2016,09,28,09,15,13.40
2016,09,28,09,16,13.50
2016,09,28,09,17,13.60
2016,09,28,09,18,13.70
2016,09,28,09,19,13.90
2016,09,28,09,20,14.10
2016,09,28,09,21,14.30
2016,09,28,09,22,14.40
2016,09,28,09,23,14.60
2016,09,28,09,24,14.70
2016,09,28,09,25,14.80
2016,09,28,09,26,14.90
2016,09,28,09,27,15.00
2016,09,28,09,28,15.00
2016,09,28,09,29,15.10
2016,09,28,09,30,15.00
2016,09,28,09,31,14.90
2016,09,28,09,32,14.80
2016,09,28,09,33,14.70
2016,09,28,09,34,14.60
2016,09,28,09,35,14.60
2016,09,28,09,36,14.50
2016,09,28,09,37,14.50
2016,09,28,09,38,14.50
2016,09,28,09,39,14.60
2016,09,28,09,40,14.70
2016,09,28,09,41,14.70
2016,09,28,09,42,14.70
2016,09,28,09,43,14.60
2016,09,28,09,44,14.60
2016,09,28,09,45,14.50
2016,09,28,09,46,14.60
2016,09,28,09,47,14.60
2016,09,28,09,48,14.70
2016,09,28,09,49,14.70
2016,09,28,09,50,14.80
2016,09,28,09,51,14.80
2016,09,28,09,52,14.70
2016,09,28,09,53,14.70
2016,09,28,09,54,14.70
2016,09,28,09,55,14.80
2016,09,28,09,56,15.00
2016,09,28,09,57,15.10
2016,09,28,09,58,15.10
2016,09,28,09,59,15.10
2016,09,28,10,00,15.20
2016,09,28,10,01,15.30
2016,09,28,10,02,15.40
2016,09,28,10,03,15.50
2016,09,28,10,04,15.70
2016,09,28,10,05,15.80
2016,09,28,10,06,15.80
2016,09,28,10,07,15.80
2016,09,28,10,08,15.80
2016,09,28,10,09,15.80
2016,09,28,10,10,15.80
2016,09,28,10,11,15.80
2016,09,28,10,12,15.80
2016,09,28,10,13,15.70
2016,09,28,10,14,15.60
2016,09,28,10,15,15.50
2016,09,28,10,16,15.60
2016,09,28,10,17,15.60
2016,09,28,10,18,15.70
2016,09,28,10,19,15.70
2016,09,28,10,20,15.70
2016,09,28,10,21,15.80
2016,09,28,10,22,15.80
2016,09,28,10,23,15.90
2016,09,28,10,24,15.90
2016,09,28,10,25,15.90
2016,09,28,10,26,15.90
2016,09,28,10,27,15.90
2016,09,28,10,28,15.90
2016,09,28,10,29,16.00
2016,09,28,10,30,16.10
2016,09,28,10,31,16.20
2016,09,28,10,32,16.40
2016,09,28,10,33,16.50
2016,09,28,10,34,16.70
2016,09,28,10,35,16.80
2016,09,28,10,36,16.80
2016,09,28,10,37,16.80
2016,09,28,10,38,16.80
2016,09,28,10,39,16.90
2016,09,28,10,40,16.90
2016,09,28,10,41,16.90
2016,09,28,10,42,16.80
2016,09,28,10,43,16.80
2016,09,28,10,44,16.80
2016,09,28,10,45,16.80
2016,09,28,10,46,16.70
2016,09,28,10,47,16.70
2016,09,28,10,48,16.60
2016,09,28,10,49,16.50
2016,09,28,10,50,16.40
2016,09,28,10,51,16.50
2016,09,28,10,52,16.50
2016,09,28,10,53,16.70
2016,09,28,10,54,16.80
2016,09,28,10,55,16.80
2016,09,28,10,56,16.80
2016,09,28,10,57,16.80
2016,09,28,10,58,16.90
2016,09,28,10,59,16.90
2016,09,28,11,00,17.00
2016,09,28,11,01,17.00
2016,09,28,11,02,17.00
2016,09,28,11,03,16.90
2016,09,28,11,04,16.90
2016,09,28,11,05,16.90
2016,09,28,11,06,16.90
2016,09,28,11,07,17.00
2016,09,28,11,08,17.10
2016,09,28,11,09,17.10
2016,09,28,11,10,17.10
2016,09,28,11,11,17.20
2016,09,28,11,12,17.20
2016,09,28,11,13,17.20
2016,09,28,11,14,17.20
2016,09,28,11,15,17.20
2016,09,28,11,16,17.10
2016,09,28,11,17,16.90
2016,09,28,11,18,16.80
2016,09,28,11,19,16.80
2016,09,28,11,20,16.70
2016,09,28,11,21,16.70
2016,09,28,11,22,16.70
2016,09,28,11,23,16.70
2016,09,28,11,24,16.50
2016,09,28,11,25,16.50
2016,09,28,11,26,16.60
2016,09,28,11,27,16.70
2016,09,28,11,28,16.80
2016,09,28,11,29,16.90
2016,09,28,11,30,17.00
2016,09,28,11,31,16.90
2016,09,28,11,32,16.90
2016,09,28,11,33,16.90
2016,09,28,11,34,16.70
2016,09,28,11,35,16.70
2016,09,28,11,36,16.70
2016,09,28,11,37,16.80
2016,09,28,11,38,17.00
2016,09,28,11,39,17.10
2016,09,28,11,40,17.20
2016,09,28,11,41,17.30
2016,09,28,11,42,17.50
2016,09,28,11,43,17.40
2016,09,28,11,44,17.30
2016,09,28,11,45,17.40
2016,09,28,11,46,17.40
2016,09,28,11,47,17.50
2016,09,28,11,48,17.60
2016,09,28,11,49,17.70
2016,09,28,11,50,17.70
2016,09,28,11,51,17.80
2016,09,28,11,52,17.80
2016,09,28,11,53,17.90
2016,09,28,11,54,17.90
2016,09,28,11,55,17.80
2016,09,28,11,56,17.80
2016,09,28,11,57,17.80
2016,09,28,11,58,17.80
2016,09,28,11,59,17.80
2016,09,28,12,00,17.90
2016,09,28,12,01,18.00
2016,09,28,12,02,18.10
2016,09,28,12,03,18.00
2016,09,28,12,04,18.00
2016,09,28,12,05,17.90
2016,09,28,12,06,17.80
2016,09,28,12,07,17.80
2016,09,28,12,08,17.90
2016,09,28,12,09,17.90
2016,09,28,12,10,17.90
2016,09,28,12,11,17.90
2016,09,28,12,12,17.70
2016,09,28,12,13,17.70
2016,09,28,12,14,17.80
2016,09,28,12,15,17.80
2016,09,28,12,16,17.80
2016,09,28,12,17,17.70
2016,09,28,12,18,17.50
2016,09,28,12,19,17.40
2016,09,28,12,20,17.30
2016,09,28,12,21,17.40
2016,09,28,12,22,17.50
2016,09,28,12,23,17.70
2016,09,28,12,24,17.70
2016,09,28,12,25,17.80
2016,09,28,12,26,17.80
2016,09,28,12,27,17.70
2016,09,28,12,28,17.60
2016,09,28,12,29,17.50
2016,09,28,12,30,17.30
2016,09,28,12,31,17.30
2016,09,28,12,32,17.20
2016,09,28,12,33,17.00
2016,09,28,12,34,16.90
2016,09,28,12,35,16.80
2016,09,28,12,36,16.80
2016,09,28,12,37,16.90
2016,09,28,12,38,17.10
2016,09,28,12,39,17.30
2016,09,28,12,40,17.40
2016,09,28,12,41,17.50
2016,09,28,12,42,17.60
2016,09,28,12,43,17.70
2016,09,28,12,44,17.80
2016,09,28,12,45,17.80
2016,09,28,12,46,17.70
2016,09,28,12,47,17.70
2016,09,28,12,48,17.70
2016,09,28,12,49,17.70
2016,09,28,12,50,17.70
2016,09,28,12,51,17.80
2016,09,28,12,52,17.90
2016,09,28,12,53,18.00
2016,09,28,12,54,18.10
2016,09,28,12,55,18.20
2016,09,28,12,56,18.20
2016,09,28,12,57,18.10
2016,09,28,12,58,18.00
2016,09,28,12,59,17.80
2016,09,28,13,00,17.70
2016,09,28,13,01,17.60
2016,09,28,13,02,17.60
2016,09,28,13,03,17.60
2016,09,28,13,04,17.70
2016,09,28,13,05,17.70
2016,09,28,13,06,17.70
2016,09,28,13,07,17.80
2016,09,28,13,08,17.90
2016,09,28,13,09,17.90
2016,09,28,13,10,17.90
2016,09,28,13,11,18.00
2016,09,28,13,12,18.00
2016,09,28,13,13,18.10
2016,09,28,13,14,18.00
2016,09,28,13,15,18.00
2016,09,28,13,16,18.00
2016,09,28,13,17,18.10
2016,09,28,13,18,18.00
2016,09,28,13,19,18.00
2016,09,28,13,20,18.20
2016,09,28,13,21,18.20
2016,09,28,13,22,18.20
2016,09,28,13,23,18.20
2016,09,28,13,24,18.30
2016,09,28,13,25,18.40
2016,09,28,13,26,18.50
2016,09,28,13,27,18.60
2016,09,28,13,28,18.70
2016,09,28,13,29,18.80
2016,09,28,13,30,18.90
2016,09,28,13,31,19.00
2016,09,28,13,32,19.10
2016,09,28,13,33,19.20
2016,09,28,13,34,19.20
2016,09,28,13,35,19.20
2016,09,28,13,36,19.30
2016,09,28,13,37,19.20
2016,09,28,13,38,19.20
2016,09,28,13,39,19.20
2016,09,28,13,40,19.20
2016,09,28,13,41,19.20
2016,09,28,13,42,19.30
2016,09,28,13,43,19.30
2016,09,28,13,44,19.40
2016,09,28,13,45,19.30
2016,09,28,13,46,19.30
2016,09,28,13,47,19.30
2016,09,28,13,48,19.40
2016,09,28,13,49,19.40
2016,09,28,13,50,19.40
2016,09,28,13,51,19.40
2016,09,28,13,52,19.50
2016,09,28,13,53,19.60
2016,09,28,13,54,19.80
2016,09,28,13,55,19.90
2016,09,28,13,56,20.10
2016,09,28,13,57,20.20
2016,09,28,13,58,20.20
2016,09,28,13,59,20.30
2016,09,28,14,00,20.30
2016,09,28,14,01,20.30
2016,09,28,14,02,20.30
2016,09,28,14,03,20.30
2016,09,28,14,04,20.20
2016,09,28,14,05,20.10
2016,09,28,14,06,20.10
2016,09,28,14,07,19.90
2016,09,28,14,08,19.80
2016,09,28,14,09,19.50
2016,09,28,14,10,19.40
2016,09,28,14,11,19.40
2016,09,28,14,12,19.50
2016,09,28,14,13,19.50
2016,09,28,14,14,19.60
2016,09,28,14,15,19.50
2016,09,28,14,16,19.40
2016,09,28,14,17,19.40
2016,09,28,14,18,19.30
2016,09,28,14,19,19.30
2016,09,28,14,20,19.30
2016,09,28,14,21,19.20
2016,09,28,14,22,19.10
2016,09,28,14,23,19.00
2016,09,28,14,24,18.90
2016,09,28,14,25,18.80
2016,09,28,14,26,18.80
2016,09,28,14,27,18.70
2016,09,28,14,28,18.60
2016,09,28,14,29,18.50
2016,09,28,14,30,18.50
2016,09,28,14,31,18.40
2016,09,28,14,32,18.40
2016,09,28,14,33,18.30
2016,09,28,14,34,18.30
2016,09,28,14,35,18.30
2016,09,28,14,36,18.30
2016,09,28,14,37,18.30
2016,09,28,14,38,18.10
2016,09,28,14,39,18.00
2016,09,28,14,40,18.00
2016,09,28,14,41,17.90
2016,09,28,14,42,17.90
2016,09,28,14,43,17.90
2016,09,28,14,44,18.00
2016,09,28,14,45,18.10
2016,09,28,14,46,18.10
2016,09,28,14,47,18.00
2016,09,28,14,48,18.00
2016,09,28,14,49,18.00
2016,09,28,14,50,18.10
2016,09,28,14,51,18.00
2016,09,28,14,52,18.10
2016,09,28,14,53,18.10
2016,09,28,14,54,18.20
2016,09,28,14,55,18.20
2016,09,28,14,56,18.20
2016,09,28,14,57,18.30
2016,09,28,14,58,18.40
2016,09,28,14,59,18.40
2016,09,28,15,00,18.50
2016,09,28,15,01,18.50
2016,09,28,15,02,18.70
2016,09,28,15,03,18.60
2016,09,28,15,04,18.50
2016,09,28,15,05,18.40
2016,09,28,15,06,18.30
2016,09,28,15,07,18.30
2016,09,28,15,08,18.40
2016,09,28,15,09,18.50
2016,09,28,15,10,18.50
2016,09,28,15,11,18.60
2016,09,28,15,12,18.50
2016,09,28,15,13,18.40
2016,09,28,15,14,18.40
2016,09,28,15,15,18.30
2016,09,28,15,16,18.20
2016,09,28,15,17,18.10
2016,09,28,15,18,18.10
2016,09,28,15,19,18.10
2016,09,28,15,20,18.20
2016,09,28,15,21,18.30
2016,09,28,15,22,18.20
2016,09,28,15,23,18.30
2016,09,28,15,24,18.30
2016,09,28,15,25,18.30
2016,09,28,15,26,18.30
2016,09,28,15,27,18.20
2016,09,28,15,28,18.20
2016,09,28,15,29,18.20
2016,09,28,15,30,18.10
2016,09,28,15,31,18.00
2016,09,28,15,32,18.00
2016,09,28,15,33,18.10
2016,09,28,15,34,18.00
2016,09,28,15,35,18.00
2016,09,28,15,36,18.00
2016,09,28,15,37,18.10
2016,09,28,15,38,18.20
2016,09,28,15,39,18.30
2016,09,28,15,40,18.30
2016,09,28,15,41,18.40
2016,09,28,15,42,18.40
2016,09,28,15,43,18.40
2016,09,28,15,44,18.40
2016,09,28,15,45,18.40
2016,09,28,15,46,18.40
2016,09,28,15,47,18.50
2016,09,28,15,48,18.40
2016,09,28,15,49,18.40
2016,09,28,15,50,18.40
2016,09,28,15,51,18.30
2016,09,28,15,52,18.40
2016,09,28,15,53,18.40
2016,09,28,15,54,18.60
2016,09,28,15,55,18.70
2016,09,28,15,56,18.80
2016,09,28,15,57,18.80
2016,09,28,15,58,18.70
2016,09,28,15,59,18.50
2016,09,28,16,00,18.50
2016,09,28,16,01,18.50
2016,09,28,16,02,18.50
2016,09,28,16,03,18.50
2016,09,28,16,04,18.60
2016,09,28,16,05,18.60
2016,09,28,16,06,18.50
2016,09,28,16,07,18.40
2016,09,28,16,08,18.30
2016,09,28,16,09,18.30
2016,09,28,16,10,18.30
2016,09,28,16,11,18.20
2016,09,28,16,12,18.10
2016,09,28,16,13,18.10
2016,09,28,16,14,18.00
2016,09,28,16,15,17.90
2016,09,28,16,16,17.90
2016,09,28,16,17,17.80
2016,09,28,16,18,17.80
2016,09,28,16,19,17.70
2016,09,28,16,20,17.70
2016,09,28,16,21,17.70
2016,09,28,16,22,17.70
2016,09,28,16,23,17.60
2016,09,28,16,24,17.60
2016,09,28,16,25,17.70
2016,09,28,16,26,17.60
2016,09,28,16,27,17.60
2016,09,28,16,28,17.60
2016,09,28,16,29,17.60
2016,09,28,16,30,17.50
2016,09,28,16,31,17.60
2016,09,28,16,32,17.60
2016,09,28,16,33,17.60
2016,09,28,16,34,17.60
2016,09,28,16,35,17.60
2016,09,28,16,36,17.60
2016,09,28,16,37,17.60
2016,09,28,16,38,17.70
2016,09,28,16,39,17.80
2016,09,28,16,40,17.80
2016,09,28,16,41,17.80
2016,09,28,16,42,17.80
2016,09,28,16,43,17.80
2016,09,28,16,44,17.80
2016,09,28,16,45,17.80
2016,09,28,16,46,17.60
2016,09,28,16,47,17.60
2016,09,28,16,48,17.50
2016,09,28,16,49,17.50
2016,09,28,16,50,17.40
2016,09,28,16,51,17.40
2016,09,28,16,52,17.40
2016,09,28,16,53,17.40
2016,09,28,16,54,17.50
2016,09,28,16,55,17.50
2016,09,28,16,56,17.60
2016,09,28,16,57,17.60
2016,09,28,16,58,17.70
2016,09,28,16,59,17.70
2016,09,28,17,00,17.80
2016,09,28,17,01,17.80
2016,09,28,17,02,17.80
2016,09,28,17,03,17.90
2016,09,28,17,04,17.80
2016,09,28,17,05,17.80
2016,09,28,17,06,17.70
2016,09,28,17,07,17.70
2016,09,28,17,08,17.70
2016,09,28,17,09,17.70
2016,09,28,17,10,17.80
2016,09,28,17,11,17.70
2016,09,28,17,12,17.70
2016,09,28,17,13,17.70
2016,09,28,17,14,17.70
2016,09,28,17,15,17.70
2016,09,28,17,16,17.70
2016,09,28,17,17,17.70
2016,09,28,17,18,17.70
2016,09,28,17,19,17.60
2016,09,28,17,20,17.70
2016,09,28,17,21,17.60
2016,09,28,17,22,17.60
2016,09,28,17,23,17.60
2016,09,28,17,24,17.60
2016,09,28,17,25,17.60
2016,09,28,17,26,17.60
2016,09,28,17,27,17.50
2016,09,28,17,28,17.50
2016,09,28,17,29,17.40
2016,09,28,17,30,17.30
2016,09,28,17,31,17.30
2016,09,28,17,32,17.30
2016,09,28,17,33,17.30
2016,09,28,17,34,17.30
2016,09,28,17,35,17.30
2016,09,28,17,36,17.30
2016,09,28,17,37,17.30
2016,09,28,17,38,17.30
2016,09,28,17,39,17.40
2016,09,28,17,40,17.30
2016,09,28,17,41,17.30